Time,TemperatureF,DewpointF,PressureIn,WindDirection,WindDirectionDegrees,WindSpeedMPH,WindSpeedGustMPH,Humidity,HourlyPrecipIn,Conditions,Clouds,dailyrainin,SoftwareType,DateUTC
2013-07-19 00:01:00,77.8,74.3,29.99,SSW,212,0.0,0.0,89,0.00,,CLR,0.00,VWS V14.01,2013-07-19 04:01:00,
2013-07-19 00:06:00,77.7,74.5,29.99,SSW,212,0.0,0.0,90,0.00,,CLR,0.00,VWS V14.01,2013-07-19 04:06:00,
2013-07-19 00:11:00,77.6,74.4,29.99,SSW,211,0.0,0.0,90,0.00,,CLR,0.00,VWS V14.01,2013-07-19 04:11:00,
2013-07-19 00:16:00,77.5,74.6,29.99,SSW,211,0.0,0.0,91,0.00,,CLR,0.00,VWS V14.01,2013-07-19 04:16:00,
2013-07-19 00:21:00,77.5,74.6,29.99,SSW,211,0.0,0.0,91,0.00,,CLR,0.00,VWS V14.01,2013-07-19 04:21:00,
2013-07-19 00:26:00,77.5,74.6,29.98,SSW,211,0.0,0.0,91,0.00,,CLR,0.00,VWS V14.01,2013-07-19 04:26:00,
2013-07-19 00:31:00,77.5,74.6,29.99,SSW,211,0.0,0.0,91,0.00,,CLR,0.00,VWS V14.01,2013-07-19 04:31:00,
2013-07-19 00:36:00,77.3,74.4,29.98,SSW,210,0.0,0.0,91,0.00,,CLR,0.00,VWS V14.01,2013-07-19 04:36:00,
2013-07-19 00:41:00,77.3,74.4,29.99,SSW,210,0.0,0.0,91,0.00,,CLR,0.00,VWS V14.01,2013-07-19 04:41:00,
2013-07-19 00:46:00,77.1,74.6,29.99,SSW,210,0.0,0.0,92,0.00,,CLR,0.00,VWS V14.01,2013-07-19 04:46:00,
2013-07-19 00:51:00,77.1,74.6,29.98,SSW,210,0.0,0.0,92,0.00,,CLR,0.00,VWS V14.01,2013-07-19 04:51:00,
2013-07-19 00:56:00,77.3,74.8,29.99,SSW,210,0.0,0.0,92,0.00,,CLR,0.00,VWS V14.01,2013-07-19 04:56:00,
2013-07-19 01:01:00,77.3,75.1,29.98,SSW,210,0.0,0.0,93,0.00,,CLR,0.00,VWS V14.01,2013-07-19 05:01:00,
2013-07-19 01:06:00,77.4,74.9,29.99,SSW,210,0.0,0.0,92,0.00,,CLR,0.00,VWS V14.01,2013-07-19 05:06:00,
2013-07-19 01:11:00,77.6,75.4,29.98,SSW,210,0.0,1.0,93,0.00,,CLR,0.00,VWS V14.01,2013-07-19 05:11:00,
2013-07-19 01:16:00,77.6,75.1,29.98,SSW,210,0.0,0.0,92,0.00,,CLR,0.00,VWS V14.01,2013-07-19 05:16:00,
2013-07-19 01:21:00,77.6,75.1,29.99,SSW,210,0.0,0.0,92,0.00,,CLR,0.00,VWS V14.01,2013-07-19 05:21:00,
2013-07-19 01:26:00,77.5,74.6,29.99,SSW,210,0.0,0.0,91,0.00,,CLR,0.00,VWS V14.01,2013-07-19 05:26:00,
2013-07-19 01:31:00,77.3,74.8,29.99,SSW,209,0.0,0.0,92,0.00,,CLR,0.00,VWS V14.01,2013-07-19 05:31:00,
2013-07-19 01:36:00,77.3,74.8,29.98,SSW,209,0.0,0.0,92,0.00,,CLR,0.00,VWS V14.01,2013-07-19 05:36:00,
2013-07-19 01:41:00,77.1,74.6,29.98,SSW,209,0.0,0.0,92,0.00,,CLR,0.00,VWS V14.01,2013-07-19 05:41:00,
2013-07-19 01:46:00,76.9,74.4,29.98,SSW,207,0.0,0.0,92,0.00,,CLR,0.00,VWS V14.01,2013-07-19 05:46:00,
2013-07-19 01:51:00,76.9,74.7,29.99,SSW,203,0.0,0.0,93,0.00,,CLR,0.00,VWS V14.01,2013-07-19 05:51:00,
2013-07-19 01:56:00,76.8,74.6,29.99,SSW,212,0.0,0.0,93,0.00,,CLR,0.00,VWS V14.01,2013-07-19 05:56:00,
2013-07-19 02:01:00,76.6,74.7,29.98,SSW,212,0.0,0.0,94,0.00,,CLR,0.00,VWS V14.01,2013-07-19 06:01:00,
2013-07-19 02:06:00,76.6,74.7,29.98,SSW,212,0.0,0.0,94,0.00,,CLR,0.00,VWS V14.01,2013-07-19 06:06:00,
2013-07-19 02:11:00,76.6,74.7,29.98,SSW,212,0.0,1.0,94,0.00,,CLR,0.00,VWS V14.01,2013-07-19 06:11:00,
2013-07-19 02:16:00,76.6,74.7,29.98,SSW,212,0.0,1.0,94,0.00,,CLR,0.00,VWS V14.01,2013-07-19 06:16:00,
2013-07-19 02:21:00,76.6,74.7,29.98,SSW,212,0.0,1.0,94,0.00,,CLR,0.00,VWS V14.01,2013-07-19 06:21:00,
2013-07-19 02:26:00,76.6,75.0,29.98,SSW,212,0.0,0.0,95,0.00,,CLR,0.00,VWS V14.01,2013-07-19 06:26:00,
2013-07-19 02:31:00,76.6,75.0,29.98,SSW,212,0.0,0.0,95,0.00,,CLR,0.00,VWS V14.01,2013-07-19 06:31:00,
2013-07-19 02:36:00,76.7,75.1,29.98,SSW,212,0.0,0.0,95,0.00,,CLR,0.00,VWS V14.01,2013-07-19 06:36:00,
2013-07-19 02:41:00,76.6,75.0,29.98,SSW,212,0.0,0.0,95,0.00,,CLR,0.00,VWS V14.01,2013-07-19 06:41:00,
2013-07-19 02:46:00,76.6,75.0,29.99,SSW,212,0.0,0.0,95,0.00,,CLR,0.00,VWS V14.01,2013-07-19 06:46:00,
2013-07-19 02:51:00,76.6,75.0,29.99,SSW,212,0.0,2.0,95,0.00,,CLR,0.00,VWS V14.01,2013-07-19 06:51:00,
2013-07-19 02:56:00,76.6,75.0,29.98,SSW,212,0.0,0.0,95,0.00,,CLR,0.00,VWS V14.01,2013-07-19 06:56:00,
2013-07-19 03:01:00,76.4,74.8,29.98,SSW,212,0.0,0.0,95,0.00,,CLR,0.00,VWS V14.01,2013-07-19 07:01:00,
2013-07-19 03:06:00,76.2,74.6,29.98,SSW,212,0.0,0.0,95,0.00,,FEW085,0.00,VWS V14.01,2013-07-19 07:06:00,
2013-07-19 03:11:00,76.2,74.6,29.97,SSW,212,0.0,0.0,95,0.00,,FEW085,0.00,VWS V14.01,2013-07-19 07:11:00,
2013-07-19 03:16:00,76.2,74.6,29.98,SSW,212,0.0,0.0,95,0.00,,FEW085,0.00,VWS V14.01,2013-07-19 07:16:00,
2013-07-19 03:21:00,76.2,74.6,29.97,SSW,212,0.0,0.0,95,0.00,,FEW085,0.00,VWS V14.01,2013-07-19 07:21:00,
2013-07-19 03:26:00,76.2,74.9,29.97,SSW,212,0.0,0.0,96,0.00,,FEW085,0.00,VWS V14.01,2013-07-19 07:26:00,
2013-07-19 03:31:00,76.1,74.5,29.97,SSW,212,0.0,0.0,95,0.00,,FEW085,0.00,VWS V14.01,2013-07-19 07:31:00,
2013-07-19 03:36:00,76.1,74.8,29.97,SSW,212,0.0,0.0,96,0.00,,FEW085,0.00,VWS V14.01,2013-07-19 07:36:00,
2013-07-19 03:41:00,76.1,74.8,29.97,SSW,212,0.0,0.0,96,0.00,,FEW085,0.00,VWS V14.01,2013-07-19 07:41:00,
2013-07-19 03:46:00,75.9,74.4,29.97,SSW,212,0.0,0.0,95,0.00,,FEW085,0.00,VWS V14.01,2013-07-19 07:46:00,
2013-07-19 03:51:00,76.1,74.8,29.97,SSW,212,0.0,0.0,96,0.00,,FEW085,0.00,VWS V14.01,2013-07-19 07:51:00,
2013-07-19 03:56:00,75.9,74.7,29.97,SSW,212,0.0,1.0,96,0.00,,FEW085,0.00,VWS V14.01,2013-07-19 07:56:00,
2013-07-19 04:01:00,75.9,74.7,29.97,SSW,212,0.0,0.0,96,0.00,,FEW085,0.00,VWS V14.01,2013-07-19 08:01:00,
2013-07-19 04:06:00,75.9,74.7,29.97,SSW,212,0.0,0.0,96,0.00,,,0.00,VWS V14.01,2013-07-19 08:06:00,
2013-07-19 04:11:00,76.1,74.8,29.97,SSW,212,0.0,0.0,96,0.00,,,0.00,VWS V14.01,2013-07-19 08:11:00,
2013-07-19 04:16:00,75.9,74.7,29.96,SSW,212,0.0,0.0,96,0.00,,,0.00,VWS V14.01,2013-07-19 08:16:00,
2013-07-19 04:21:00,75.9,74.7,29.96,SSW,212,0.0,0.0,96,0.00,,,0.00,VWS V14.01,2013-07-19 08:21:00,
2013-07-19 04:26:00,76.1,74.5,29.96,SSW,212,0.0,0.0,95,0.00,,,0.00,VWS V14.01,2013-07-19 08:26:00,
2013-07-19 04:31:00,76.1,74.8,29.97,SSW,212,0.0,0.0,96,0.00,,,0.00,VWS V14.01,2013-07-19 08:31:00,
2013-07-19 04:36:00,75.9,74.4,29.96,SSW,212,0.0,1.0,95,0.00,,,0.00,VWS V14.01,2013-07-19 08:36:00,
2013-07-19 04:41:00,76.2,74.6,29.96,SSW,212,0.0,1.0,95,0.00,,,0.00,VWS V14.01,2013-07-19 08:41:00,
2013-07-19 04:46:00,76.4,75.1,29.96,SW,217,0.0,1.0,96,0.00,,,0.00,VWS V14.01,2013-07-19 08:46:00,
2013-07-19 04:51:00,76.6,75.0,29.96,SW,216,1.0,2.0,95,0.00,,,0.00,VWS V14.01,2013-07-19 08:51:00,
2013-07-19 04:56:00,76.6,75.3,29.96,SW,217,0.0,0.0,96,0.00,,,0.00,VWS V14.01,2013-07-19 08:56:00,
2013-07-19 05:01:00,76.7,75.1,29.96,SW,217,1.0,1.0,95,0.00,,,0.00,VWS V14.01,2013-07-19 09:01:00,
2013-07-19 05:06:00,76.4,74.8,29.96,SW,217,0.0,0.0,95,0.00,,,0.00,VWS V14.01,2013-07-19 09:06:00,
2013-07-19 05:11:00,76.2,74.4,29.96,SW,217,0.0,0.0,94,0.00,,,0.00,VWS V14.01,2013-07-19 09:11:00,
2013-07-19 05:16:00,76.2,74.4,29.96,SW,220,0.0,1.0,94,0.00,,,0.00,VWS V14.01,2013-07-19 09:16:00,
2013-07-19 05:21:00,76.2,74.4,29.96,SW,220,0.0,2.0,94,0.00,,,0.00,VWS V14.01,2013-07-19 09:21:00,
2013-07-19 05:26:00,76.2,74.4,29.96,SW,220,1.0,1.0,94,0.00,,,0.00,VWS V14.01,2013-07-19 09:26:00,
2013-07-19 05:31:00,76.1,74.2,29.96,SW,220,0.0,2.0,94,0.00,,,0.00,VWS V14.01,2013-07-19 09:31:00,
2013-07-19 05:36:00,76.1,74.5,29.96,SW,220,0.0,2.0,95,0.00,,,0.00,VWS V14.01,2013-07-19 09:36:00,
2013-07-19 05:41:00,75.8,74.3,29.96,SW,220,0.0,0.0,95,0.00,,,0.00,VWS V14.01,2013-07-19 09:41:00,
2013-07-19 05:46:00,75.8,74.0,29.96,SW,220,0.0,0.0,94,0.00,,,0.00,VWS V14.01,2013-07-19 09:46:00,
2013-07-19 05:51:00,75.8,74.2,29.96,SW,220,0.0,0.0,95,0.00,,,0.00,VWS V14.01,2013-07-19 09:51:00,
2013-07-19 05:56:00,75.6,74.0,29.96,SW,220,0.0,0.0,95,0.00,,,0.00,VWS V14.01,2013-07-19 09:56:00,
2013-07-19 06:01:00,75.6,74.0,29.96,SW,220,0.0,0.0,95,0.00,,,0.00,VWS V14.01,2013-07-19 10:01:00,
2013-07-19 06:06:00,75.3,73.8,29.96,SW,219,0.0,0.0,95,0.00,,,0.00,VWS V14.01,2013-07-19 10:06:00,
2013-07-19 06:11:00,75.3,73.8,29.96,SW,219,0.0,0.0,95,0.00,,,0.00,VWS V14.01,2013-07-19 10:11:00,
2013-07-19 06:15:00,75.3,74.1,29.96,SW,219,0.0,0.0,96,0.00,,,0.00,VWS V14.01,2013-07-19 10:15:00,
2013-07-19 06:20:00,75.1,73.9,29.96,SW,219,0.0,0.0,96,0.00,,,0.00,VWS V14.01,2013-07-19 10:20:00,
2013-07-19 06:25:00,75.1,73.9,29.96,SW,219,0.0,0.0,96,0.00,,,0.00,VWS V14.01,2013-07-19 10:25:00,
2013-07-19 06:30:00,75.1,73.9,29.95,SW,219,0.0,1.0,96,0.00,,,0.00,VWS V14.01,2013-07-19 10:30:00,
2013-07-19 06:35:00,75.1,73.9,29.96,SW,219,0.0,0.0,96,0.00,,,0.00,VWS V14.01,2013-07-19 10:35:00,
2013-07-19 06:40:00,75.1,74.2,29.96,SW,219,0.0,0.0,97,0.00,,,0.00,VWS V14.01,2013-07-19 10:40:00,
2013-07-19 06:45:00,75.3,74.4,29.96,SW,219,0.0,0.0,97,0.00,,,0.00,VWS V14.01,2013-07-19 10:45:00,
2013-07-19 06:50:00,75.6,74.6,29.96,SW,219,0.0,0.0,97,0.00,,,0.00,VWS V14.01,2013-07-19 10:50:00,
2013-07-19 06:55:00,75.8,74.8,29.96,SW,219,2.0,3.0,97,0.00,,,0.00,VWS V14.01,2013-07-19 10:55:00,
2013-07-19 07:00:00,75.8,74.9,29.96,SW,219,0.0,1.0,97,0.00,,,0.00,VWS V14.01,2013-07-19 11:00:00,
2013-07-19 07:05:00,76.2,75.0,29.95,SW,219,0.0,2.0,96,0.00,,,0.00,VWS V14.01,2013-07-19 11:05:00,
2013-07-19 07:11:00,76.5,75.2,29.96,SW,219,0.0,1.0,96,0.00,,,0.00,VWS V14.01,2013-07-19 11:11:00,
2013-07-19 07:16:00,76.8,75.5,29.96,West,267,0.0,1.0,96,0.00,,,0.00,VWS V14.01,2013-07-19 11:16:00,
2013-07-19 07:20:00,77.0,75.4,29.96,West,267,0.0,0.0,95,0.00,,,0.00,VWS V14.01,2013-07-19 11:20:00,
2013-07-19 07:25:00,77.3,75.4,29.96,WSW,257,3.0,3.0,94,0.00,,,0.00,VWS V14.01,2013-07-19 11:25:00,
2013-07-19 07:30:00,78.0,75.8,29.96,WSW,256,1.0,2.0,93,0.00,,,0.00,VWS V14.01,2013-07-19 11:30:00,
2013-07-19 07:35:00,78.2,75.7,29.96,WSW,252,1.0,3.0,92,0.00,,,0.00,VWS V14.01,2013-07-19 11:35:00,
2013-07-19 07:40:00,78.5,76.0,29.96,WSW,250,1.0,2.0,92,0.00,,,0.00,VWS V14.01,2013-07-19 11:40:00,
2013-07-19 07:45:00,78.7,75.8,29.96,WSW,248,0.0,0.0,91,0.00,,,0.00,VWS V14.01,2013-07-19 11:45:00,
2013-07-19 07:50:00,78.9,75.4,29.96,SW,233,2.0,3.0,89,0.00,,,0.00,VWS V14.01,2013-07-19 11:50:00,
2013-07-19 07:55:00,79.1,75.6,29.96,SW,216,2.0,5.0,89,0.00,,,0.00,VWS V14.01,2013-07-19 11:55:00,
2013-07-19 08:00:00,79.2,75.7,29.96,SW,218,2.0,6.0,89,0.00,,,0.00,VWS V14.01,2013-07-19 12:00:00,
2013-07-19 08:05:00,79.6,75.7,29.96,SSE,165,1.0,4.0,88,0.00,,SCT250,0.00,VWS V14.01,2013-07-19 12:05:00,
2013-07-19 08:10:00,79.8,75.6,29.96,SSW,201,2.0,4.0,87,0.00,,SCT250,0.00,VWS V14.01,2013-07-19 12:10:00,
2013-07-19 08:15:00,79.6,75.4,29.96,South,190,1.0,4.0,87,0.00,,SCT250,0.00,VWS V14.01,2013-07-19 12:15:00,
2013-07-19 08:20:00,79.8,75.2,29.96,SW,222,1.0,2.0,86,0.00,,SCT250,0.00,VWS V14.01,2013-07-19 12:20:00,
2013-07-19 08:25:00,80.0,75.4,29.96,SSW,197,0.0,4.0,86,0.00,,SCT250,0.00,VWS V14.01,2013-07-19 12:25:00,
2013-07-19 08:30:00,80.5,75.9,29.97,SW,230,2.0,4.0,86,0.00,,SCT250,0.00,VWS V14.01,2013-07-19 12:30:00,
2013-07-19 08:35:00,80.8,76.2,29.97,SW,224,2.0,2.0,86,0.00,,SCT250,0.00,VWS V14.01,2013-07-19 12:35:00,
2013-07-19 08:40:00,81.3,76.4,29.96,SW,220,4.0,5.0,85,0.00,,SCT250,0.00,VWS V14.01,2013-07-19 12:40:00,
2013-07-19 08:45:00,81.5,76.2,29.96,SW,225,2.0,5.0,84,0.00,,SCT250,0.00,VWS V14.01,2013-07-19 12:45:00,
2013-07-19 08:50:00,82.0,76.7,29.96,SSW,199,1.0,4.0,84,0.00,,SCT250,0.00,VWS V14.01,2013-07-19 12:50:00,
2013-07-19 08:55:00,82.3,76.6,29.96,SW,220,4.0,5.0,83,0.00,,SCT250,0.00,VWS V14.01,2013-07-19 12:55:00,
2013-07-19 09:00:00,82.7,76.3,29.96,SW,219,2.0,4.0,81,0.00,,SCT250,0.00,VWS V14.01,2013-07-19 13:00:00,
2013-07-19 09:05:00,82.9,76.1,29.96,SW,217,1.0,5.0,80,0.00,,SCT250,0.00,VWS V14.01,2013-07-19 13:05:00,
2013-07-19 09:10:00,83.1,76.7,29.95,SSW,211,2.0,3.0,81,0.00,,SCT250,0.00,VWS V14.01,2013-07-19 13:10:00,
2013-07-19 09:15:00,83.5,76.7,29.96,SW,221,3.0,7.0,80,0.00,,SCT250,0.00,VWS V14.01,2013-07-19 13:15:00,
2013-07-19 09:20:00,83.7,76.1,29.96,West,264,3.0,6.0,78,0.00,,SCT250,0.00,VWS V14.01,2013-07-19 13:20:00,
2013-07-19 09:25:00,83.9,76.3,29.96,SW,223,1.0,3.0,78,0.00,,SCT250,0.00,VWS V14.01,2013-07-19 13:25:00,
2013-07-19 09:26:00,84.1,76.5,29.96,SW,231,2.0,5.0,78,0.00,,SCT250,0.00,VWS V14.01,2013-07-19 13:26:00,
2013-07-19 09:31:00,83.9,75.9,29.96,WNW,283,3.0,4.0,77,0.00,,SCT250,0.00,VWS V14.01,2013-07-19 13:31:00,
2013-07-19 09:36:00,84.3,75.9,29.96,SSW,208,2.0,7.0,76,0.00,,SCT250,0.00,VWS V14.01,2013-07-19 13:36:00,
2013-07-19 09:41:00,84.3,75.6,29.96,SW,227,5.0,5.0,75,0.00,,SCT250,0.00,VWS V14.01,2013-07-19 13:41:00,
2013-07-19 09:46:00,84.5,75.8,29.96,West,264,2.0,4.0,75,0.00,,SCT250,0.00,VWS V14.01,2013-07-19 13:46:00,
2013-07-19 09:51:00,84.7,75.1,29.96,West,266,0.0,7.0,73,0.00,,SCT250,0.00,VWS V14.01,2013-07-19 13:51:00,
2013-07-19 09:56:00,84.9,75.3,29.96,SSW,193,0.0,7.0,73,0.00,,SCT250,0.00,VWS V14.01,2013-07-19 13:56:00,
2013-07-19 10:01:00,85.1,75.5,29.96,SSW,213,1.0,5.0,73,0.00,,SCT250,0.00,VWS V14.01,2013-07-19 14:01:00,
2013-07-19 10:06:00,85.3,75.7,29.95,WSW,247,3.0,3.0,73,0.00,,CLR,0.00,VWS V14.01,2013-07-19 14:06:00,
2013-07-19 10:11:00,85.6,75.9,29.96,SSW,200,0.0,4.0,73,0.00,,CLR,0.00,VWS V14.01,2013-07-19 14:11:00,
2013-07-19 10:16:00,85.8,76.1,29.95,WSW,251,5.0,5.0,73,0.00,,CLR,0.00,VWS V14.01,2013-07-19 14:16:00,
2013-07-19 10:21:00,85.8,76.5,29.95,WSW,247,3.0,6.0,74,0.00,,CLR,0.00,VWS V14.01,2013-07-19 14:21:00,
2013-07-19 10:26:00,86.2,76.5,29.95,SSW,204,5.0,5.0,73,0.00,,CLR,0.00,VWS V14.01,2013-07-19 14:26:00,
2013-07-19 10:31:00,86.2,76.6,29.95,SW,231,6.0,6.0,73,0.00,,CLR,0.00,VWS V14.01,2013-07-19 14:31:00,
2013-07-19 10:36:00,86.2,76.5,29.94,WSW,250,2.0,4.0,73,0.00,,CLR,0.00,VWS V14.01,2013-07-19 14:36:00,
2013-07-19 10:41:00,86.2,76.2,29.95,West,260,2.0,7.0,72,0.00,,CLR,0.00,VWS V14.01,2013-07-19 14:41:00,
2013-07-19 10:46:00,86.7,76.6,29.95,WSW,246,2.0,7.0,72,0.00,,CLR,0.00,VWS V14.01,2013-07-19 14:46:00,
2013-07-19 10:51:00,87.2,77.5,29.95,WSW,242,1.0,3.0,73,0.00,,CLR,0.00,VWS V14.01,2013-07-19 14:51:00,
2013-07-19 10:56:00,86.9,76.8,29.95,South,184,2.0,5.0,72,0.00,,CLR,0.00,VWS V14.01,2013-07-19 14:56:00,
2013-07-19 11:01:00,86.9,76.8,29.95,SW,235,3.0,7.0,72,0.00,,CLR,0.00,VWS V14.01,2013-07-19 15:01:00,
2013-07-19 11:06:00,87.2,77.5,29.95,WSW,257,4.0,6.0,73,0.00,,CLR,0.00,VWS V14.01,2013-07-19 15:06:00,
2013-07-19 11:11:00,87.4,76.8,29.95,SSW,195,3.0,5.0,71,0.00,,CLR,0.00,VWS V14.01,2013-07-19 15:11:00,
2013-07-19 11:16:00,87.2,76.6,29.94,WSW,249,4.0,5.0,71,0.00,,CLR,0.00,VWS V14.01,2013-07-19 15:16:00,
2013-07-19 11:21:00,86.9,76.3,29.94,South,190,2.0,6.0,71,0.00,,CLR,0.00,VWS V14.01,2013-07-19 15:21:00,
2013-07-19 11:26:00,86.9,76.8,29.94,SW,231,6.0,6.0,72,0.00,,CLR,0.00,VWS V14.01,2013-07-19 15:26:00,
2013-07-19 11:31:00,87.4,77.2,29.94,SW,230,4.0,5.0,72,0.00,,CLR,0.00,VWS V14.01,2013-07-19 15:31:00,
2013-07-19 11:36:00,87.2,76.2,29.92,SW,218,1.0,5.0,70,0.00,,CLR,0.00,VWS V14.01,2013-07-19 15:36:00,
2013-07-19 11:41:00,87.4,76.4,29.94,WSW,237,1.0,4.0,70,0.00,,CLR,0.00,VWS V14.01,2013-07-19 15:41:00,
2013-07-19 11:46:00,87.8,76.3,29.94,WSW,247,2.0,9.0,69,0.00,,CLR,0.00,VWS V14.01,2013-07-19 15:46:00,
2013-07-19 11:51:00,88.0,76.5,29.93,SSW,196,4.0,5.0,69,0.00,,CLR,0.00,VWS V14.01,2013-07-19 15:51:00,
2013-07-19 11:56:00,88.0,76.1,29.93,West,268,7.0,7.0,68,0.00,,CLR,0.00,VWS V14.01,2013-07-19 15:56:00,
2013-07-19 12:01:00,87.8,75.9,29.93,SSW,203,4.0,7.0,68,0.00,,CLR,0.00,VWS V14.01,2013-07-19 16:01:00,
2013-07-19 12:06:00,87.8,75.9,29.93,SW,229,5.0,7.0,68,0.00,,FEW050,0.00,VWS V14.01,2013-07-19 16:06:00,
2013-07-19 12:11:00,88.2,76.3,29.93,South,169,2.0,5.0,68,0.00,,FEW050,0.00,VWS V14.01,2013-07-19 16:11:00,
2013-07-19 12:16:00,88.4,76.5,29.92,SSW,195,1.0,4.0,68,0.00,,FEW050,0.00,VWS V14.01,2013-07-19 16:16:00,
2013-07-19 12:21:00,88.4,76.5,29.92,South,186,4.0,7.0,68,0.00,,FEW050,0.00,VWS V14.01,2013-07-19 16:21:00,
2013-07-19 12:26:00,88.2,76.3,29.92,SSW,208,3.0,6.0,68,0.00,,FEW050,0.00,VWS V14.01,2013-07-19 16:26:00,
2013-07-19 12:31:00,88.0,76.1,29.92,SW,229,2.0,5.0,68,0.00,,FEW050,0.00,VWS V14.01,2013-07-19 16:31:00,
2013-07-19 12:36:00,88.2,76.3,29.92,SW,232,1.0,7.0,68,0.00,,FEW050,0.00,VWS V14.01,2013-07-19 16:36:00,
2013-07-19 12:41:00,88.2,76.3,29.92,WNW,284,4.0,6.0,68,0.00,,FEW050,0.00,VWS V14.01,2013-07-19 16:41:00,
2013-07-19 12:46:00,88.6,76.7,29.92,WNW,283,6.0,6.0,68,0.00,,FEW050,0.00,VWS V14.01,2013-07-19 16:46:00,
2013-07-19 12:51:00,88.6,75.8,29.92,WSW,248,6.0,7.0,66,0.00,,FEW050,0.00,VWS V14.01,2013-07-19 16:51:00,
2013-07-19 12:56:00,89.7,76.3,29.91,SW,225,5.0,8.0,65,0.00,,FEW050,0.00,VWS V14.01,2013-07-19 16:56:00,
2013-07-19 13:01:00,90.0,76.6,29.91,WSW,241,3.0,8.0,65,0.00,,FEW050,0.00,VWS V14.01,2013-07-19 17:01:00,
2013-07-19 13:06:00,89.4,76.1,29.92,SSW,195,4.0,5.0,65,0.00,,CLR,0.00,VWS V14.01,2013-07-19 17:06:00,
2013-07-19 13:11:00,89.9,77.0,29.92,SW,222,3.0,3.0,66,0.00,,CLR,0.00,VWS V14.01,2013-07-19 17:11:00,
2013-07-19 13:16:00,90.5,76.6,29.92,SW,219,6.0,7.0,64,0.00,,CLR,0.00,VWS V14.01,2013-07-19 17:16:00,
2013-07-19 13:21:00,90.5,76.6,29.91,SSW,204,3.0,12.0,64,0.00,,CLR,0.00,VWS V14.01,2013-07-19 17:21:00,
2013-07-19 13:26:00,90.8,76.9,29.90,SW,235,4.0,4.0,64,0.00,,CLR,0.00,VWS V14.01,2013-07-19 17:26:00,
2013-07-19 13:31:00,91.1,77.2,29.91,SSW,210,3.0,5.0,64,0.00,,CLR,0.00,VWS V14.01,2013-07-19 17:31:00,
2013-07-19 13:36:00,91.2,77.8,29.91,SSW,194,4.0,5.0,65,0.00,,CLR,0.00,VWS V14.01,2013-07-19 17:36:00,
2013-07-19 13:41:00,90.5,77.1,29.91,West,268,3.0,6.0,65,0.00,,CLR,0.00,VWS V14.01,2013-07-19 17:41:00,
2013-07-19 13:46:00,88.8,75.6,29.91,WSW,252,0.0,5.0,65,0.00,,CLR,0.00,VWS V14.01,2013-07-19 17:46:00,
2013-07-19 13:51:00,88.2,76.3,29.90,WSW,242,1.0,4.0,68,0.00,,CLR,0.00,VWS V14.01,2013-07-19 17:51:00,
2013-07-19 13:56:00,87.7,75.8,29.89,West,272,3.0,5.0,68,0.00,,CLR,0.00,VWS V14.01,2013-07-19 17:56:00,
2013-07-19 14:01:00,86.6,75.2,29.90,SW,215,2.0,6.0,69,0.00,,CLR,0.00,VWS V14.01,2013-07-19 18:01:00,
2013-07-19 14:06:00,86.2,75.3,29.90,WSW,241,1.0,6.0,70,0.00,,BKN120,0.00,VWS V14.01,2013-07-19 18:06:00,
2013-07-19 14:11:00,86.0,75.5,29.90,SSW,212,4.0,4.0,71,0.00,,BKN120,0.00,VWS V14.01,2013-07-19 18:11:00,
2013-07-19 14:16:00,85.8,76.1,29.90,SSW,202,4.0,8.0,73,0.00,,BKN120,0.00,VWS V14.01,2013-07-19 18:16:00,
2013-07-19 14:21:00,85.4,75.7,29.90,SW,224,0.0,6.0,73,0.00,,BKN120,0.00,VWS V14.01,2013-07-19 18:21:00,
2013-07-19 14:26:00,84.9,76.1,29.89,South,173,1.0,4.0,75,0.00,,BKN120,0.00,VWS V14.01,2013-07-19 18:26:00,
2013-07-19 14:31:00,84.3,76.0,29.89,SW,223,2.0,6.0,76,0.00,,BKN120,0.00,VWS V14.01,2013-07-19 18:31:00,
2013-07-19 14:36:00,83.8,75.1,29.88,SW,215,1.0,5.0,75,0.00,,BKN120,0.00,VWS V14.01,2013-07-19 18:36:00,
2013-07-19 14:41:00,83.6,74.5,29.88,SW,223,1.0,4.0,74,0.00,,BKN120,0.00,VWS V14.01,2013-07-19 18:41:00,
2013-07-19 14:46:00,83.8,75.1,29.88,WNW,294,2.0,4.0,75,0.00,,BKN120,0.00,VWS V14.01,2013-07-19 18:46:00,
2013-07-19 14:51:00,83.4,74.7,29.88,SW,232,1.0,2.0,75,0.00,,BKN120,0.00,VWS V14.01,2013-07-19 18:51:00,
2013-07-19 14:56:00,83.6,74.9,29.88,SW,229,0.0,5.0,75,0.00,,BKN120,0.00,VWS V14.01,2013-07-19 18:56:00,
2013-07-19 15:01:00,83.6,75.3,29.87,SSW,212,3.0,4.0,76,0.00,,BKN120,0.00,VWS V14.01,2013-07-19 19:01:00,
2013-07-19 15:06:00,83.4,75.1,29.88,South,189,1.0,5.0,76,0.00,,BKN120,0.00,VWS V14.01,2013-07-19 19:06:00,
2013-07-19 15:11:00,83.2,74.9,29.87,SSW,195,0.0,5.0,76,0.00,,BKN120,0.00,VWS V14.01,2013-07-19 19:11:00,
2013-07-19 15:16:00,83.2,75.3,29.87,South,178,1.0,6.0,77,0.00,,BKN120,0.00,VWS V14.01,2013-07-19 19:16:00,
2013-07-19 15:21:00,83.4,75.9,29.87,WSW,248,5.0,6.0,78,0.00,,BKN120,0.00,VWS V14.01,2013-07-19 19:21:00,
2013-07-19 15:26:00,83.8,75.9,29.86,South,177,1.0,7.0,77,0.00,,BKN120,0.00,VWS V14.01,2013-07-19 19:26:00,
2013-07-19 15:31:00,84.7,75.5,29.86,WSW,241,4.0,5.0,74,0.00,,BKN120,0.00,VWS V14.01,2013-07-19 19:31:00,
2013-07-19 15:36:00,85.4,74.5,29.85,West,266,2.0,8.0,70,0.00,,BKN120,0.00,VWS V14.01,2013-07-19 19:36:00,
2013-07-19 15:41:00,86.0,74.6,29.86,South,176,5.0,7.0,69,0.00,,BKN120,0.00,VWS V14.01,2013-07-19 19:41:00,
2013-07-19 15:46:00,86.4,75.5,29.85,WNW,288,4.0,5.0,70,0.00,,BKN120,0.00,VWS V14.01,2013-07-19 19:46:00,
2013-07-19 15:51:00,86.7,75.8,29.85,WNW,288,6.0,7.0,70,0.00,,BKN120,0.00,VWS V14.01,2013-07-19 19:51:00,
2013-07-19 15:56:00,86.7,76.6,29.85,SW,236,2.0,7.0,72,0.00,,BKN120,0.00,VWS V14.01,2013-07-19 19:56:00,
2013-07-19 16:00:00,86.8,77.1,29.85,SW,228,4.0,6.0,73,0.00,,BKN120,0.00,VWS V14.01,2013-07-19 20:00:00,
2013-07-19 16:06:00,87.0,77.7,29.85,WSW,239,2.0,8.0,74,0.00,,SCT120,0.00,VWS V14.01,2013-07-19 20:06:00,
2013-07-19 16:10:00,87.4,78.1,29.84,WSW,255,4.0,6.0,74,0.00,,SCT120,0.00,VWS V14.01,2013-07-19 20:10:00,
2013-07-19 16:15:00,88.0,79.1,29.85,West,262,1.0,7.0,75,0.00,,SCT120,0.00,VWS V14.01,2013-07-19 20:15:00,
2013-07-19 16:20:00,88.4,79.5,29.84,WSW,239,4.0,6.0,75,0.00,,SCT120,0.00,VWS V14.01,2013-07-19 20:20:00,
2013-07-19 16:25:00,88.4,79.5,29.84,SW,214,5.0,8.0,75,0.00,,SCT120,0.00,VWS V14.01,2013-07-19 20:25:00,
2013-07-19 16:31:00,88.2,78.9,29.84,WSW,258,7.0,7.0,74,0.00,,SCT120,0.00,VWS V14.01,2013-07-19 20:31:00,
2013-07-19 16:36:00,88.3,79.4,29.84,WSW,241,2.0,5.0,75,0.00,,SCT120,0.00,VWS V14.01,2013-07-19 20:36:00,
2013-07-19 16:41:00,88.3,78.6,29.83,WSW,248,5.0,7.0,73,0.00,,SCT120,0.00,VWS V14.01,2013-07-19 20:41:00,
2013-07-19 16:45:00,87.7,78.8,29.83,WSW,237,6.0,13.0,75,0.00,,SCT120,0.00,VWS V14.01,2013-07-19 20:45:00,
2013-07-19 16:50:00,87.5,78.6,29.83,SSW,209,2.0,6.0,75,0.00,,SCT120,0.00,VWS V14.01,2013-07-19 20:50:00,
2013-07-19 16:55:00,87.7,78.4,29.83,WSW,257,5.0,9.0,74,0.00,,SCT120,0.00,VWS V14.01,2013-07-19 20:55:00,
2013-07-19 17:00:00,87.4,78.5,29.83,SSW,204,7.0,7.0,75,0.00,,SCT120,0.00,VWS V14.01,2013-07-19 21:00:00,
2013-07-19 17:05:00,87.3,78.4,29.83,SSW,207,5.0,11.0,75,0.00,,SCT120,0.00,VWS V14.01,2013-07-19 21:05:00,
2013-07-19 17:10:00,87.4,78.5,29.82,WSW,256,5.0,8.0,75,0.00,,SCT120,0.00,VWS V14.01,2013-07-19 21:10:00,
2013-07-19 17:15:00,87.4,78.5,29.82,SW,222,4.0,7.0,75,0.00,,SCT120,0.00,VWS V14.01,2013-07-19 21:15:00,
2013-07-19 17:20:00,87.3,78.8,29.82,SSW,200,5.0,5.0,76,0.00,,SCT120,0.00,VWS V14.01,2013-07-19 21:20:00,
2013-07-19 17:25:00,87.3,78.8,29.82,NW,308,3.0,7.0,76,0.00,,SCT120,0.00,VWS V14.01,2013-07-19 21:25:00,
2013-07-19 17:30:00,87.4,78.5,29.82,SW,223,4.0,8.0,75,0.00,,SCT120,0.00,VWS V14.01,2013-07-19 21:30:00,
2013-07-19 17:35:00,87.0,78.1,29.82,SW,225,4.0,8.0,75,0.00,,SCT120,0.00,VWS V14.01,2013-07-19 21:35:00,
2013-07-19 17:40:00,86.7,77.8,29.82,West,263,2.0,4.0,75,0.00,,SCT120,0.00,VWS V14.01,2013-07-19 21:40:00,
2013-07-19 17:45:00,86.8,77.9,29.82,SW,234,3.0,6.0,75,0.00,,SCT120,0.00,VWS V14.01,2013-07-19 21:45:00,
2013-07-19 17:50:00,86.6,77.7,29.81,SW,224,5.0,7.0,75,0.00,,SCT120,0.00,VWS V14.01,2013-07-19 21:50:00,
2013-07-19 17:55:00,86.4,77.9,29.81,SSW,208,4.0,13.0,76,0.00,,SCT120,0.00,VWS V14.01,2013-07-19 21:55:00,
2013-07-19 18:00:00,86.3,77.8,29.81,SW,216,8.0,9.0,76,0.00,,SCT120,0.00,VWS V14.01,2013-07-19 22:00:00,
2013-07-19 18:05:00,85.8,77.3,29.81,WSW,255,3.0,6.0,76,0.00,,SCT120,0.00,VWS V14.01,2013-07-19 22:05:00,
2013-07-19 18:10:00,85.8,77.3,29.81,SW,228,2.0,6.0,76,0.00,,SCT120,0.00,VWS V14.01,2013-07-19 22:10:00,
2013-07-19 18:15:00,86.2,78.1,29.82,SW,234,5.0,7.0,77,0.00,,SCT120,0.00,VWS V14.01,2013-07-19 22:15:00,
2013-07-19 18:20:00,85.6,77.9,29.81,East,88,1.0,5.0,78,0.00,,SCT120,0.00,VWS V14.01,2013-07-19 22:20:00,
2013-07-19 18:25:00,85.4,77.3,29.82,WSW,238,3.0,6.0,77,0.00,,SCT120,0.00,VWS V14.01,2013-07-19 22:25:00,
2013-07-19 18:30:00,85.0,77.3,29.81,South,185,2.0,5.0,78,0.00,,SCT120,0.00,VWS V14.01,2013-07-19 22:30:00,
2013-07-19 18:35:00,85.2,77.5,29.82,WSW,240,7.0,7.0,78,0.00,,SCT120,0.00,VWS V14.01,2013-07-19 22:35:00,
2013-07-19 18:40:00,84.6,76.9,29.82,South,179,8.0,11.0,78,0.00,,SCT120,0.00,VWS V14.01,2013-07-19 22:40:00,
2013-07-19 18:45:00,84.3,76.8,29.82,SSW,211,4.0,9.0,78,0.00,,SCT120,0.00,VWS V14.01,2013-07-19 22:45:00,
2013-07-19 18:50:00,84.6,77.3,29.82,South,182,8.0,10.0,79,0.00,,SCT120,0.00,VWS V14.01,2013-07-19 22:50:00,
2013-07-19 18:55:00,84.1,76.4,29.82,SSW,208,2.0,5.0,78,0.00,,SCT120,0.00,VWS V14.01,2013-07-19 22:55:00,
2013-07-19 19:00:00,83.8,76.2,29.82,SW,235,7.0,8.0,78,0.00,,SCT120,0.00,VWS V14.01,2013-07-19 23:00:00,
2013-07-19 19:05:00,83.8,77.0,29.82,WSW,245,7.0,7.0,80,0.00,,CLR,0.00,VWS V14.01,2013-07-19 23:05:00,
2013-07-19 19:10:00,83.6,76.4,29.83,SSW,194,3.0,7.0,79,0.00,,CLR,0.00,VWS V14.01,2013-07-19 23:10:00,
2013-07-19 19:15:00,83.4,76.6,29.83,SW,236,1.0,3.0,80,0.00,,CLR,0.00,VWS V14.01,2013-07-19 23:15:00,
2013-07-19 19:20:00,83.2,76.4,29.83,South,169,3.0,4.0,80,0.00,,CLR,0.00,VWS V14.01,2013-07-19 23:20:00,
2013-07-19 19:25:00,83.0,76.2,29.83,SSE,166,2.0,3.0,80,0.00,,CLR,0.00,VWS V14.01,2013-07-19 23:25:00,
2013-07-19 19:30:00,83.1,76.7,29.83,SW,217,1.0,7.0,81,0.00,,CLR,0.00,VWS V14.01,2013-07-19 23:30:00,
2013-07-19 19:35:00,82.9,76.5,29.83,South,182,1.0,6.0,81,0.00,,CLR,0.00,VWS V14.01,2013-07-19 23:35:00,
2013-07-19 19:40:00,83.0,76.6,29.83,South,183,4.0,7.0,81,0.00,,CLR,0.00,VWS V14.01,2013-07-19 23:40:00,
2013-07-19 19:45:00,82.5,76.1,29.83,SW,215,4.0,5.0,81,0.00,,CLR,0.00,VWS V14.01,2013-07-19 23:45:00,
2013-07-19 19:50:00,82.3,76.3,29.83,SE,142,1.0,4.0,82,0.00,,CLR,0.00,VWS V14.01,2013-07-19 23:50:00,
2013-07-19 19:55:00,82.3,75.9,29.83,SSW,195,6.0,6.0,81,0.00,,CLR,0.00,VWS V14.01,2013-07-19 23:55:00,
2013-07-19 20:00:00,82.1,76.1,29.83,South,174,3.0,6.0,82,0.00,,CLR,0.00,VWS V14.01,2013-07-20 00:00:00,
2013-07-19 20:05:00,81.9,75.9,29.83,SE,133,2.0,5.0,82,0.00,,,0.00,VWS V14.01,2013-07-20 00:05:00,
2013-07-19 20:10:00,81.7,75.7,29.83,SSW,197,6.0,6.0,82,0.00,,,0.00,VWS V14.01,2013-07-20 00:10:00,
2013-07-19 20:15:00,81.6,75.6,29.83,SW,231,4.0,8.0,82,0.00,,,0.00,VWS V14.01,2013-07-20 00:15:00,
2013-07-19 20:20:00,81.6,75.6,29.83,South,177,0.0,4.0,82,0.00,,,0.00,VWS V14.01,2013-07-20 00:20:00,
2013-07-19 20:25:00,81.4,75.4,29.83,SSW,193,2.0,3.0,82,0.00,,,0.00,VWS V14.01,2013-07-20 00:25:00,
2013-07-19 20:30:00,81.2,75.2,29.83,South,176,1.0,3.0,82,0.00,,,0.00,VWS V14.01,2013-07-20 00:30:00,
2013-07-19 20:35:00,81.0,75.0,29.82,SSW,200,3.0,5.0,82,0.00,,,0.00,VWS V14.01,2013-07-20 00:35:00,
2013-07-19 20:40:00,81.1,75.1,29.83,SSW,204,2.0,4.0,82,0.00,,,0.00,VWS V14.01,2013-07-20 00:40:00,
2013-07-19 20:45:00,80.8,74.8,29.83,ENE,71,5.0,8.0,82,0.00,,,0.00,VWS V14.01,2013-07-20 00:45:00,
2013-07-19 20:50:00,80.6,74.6,29.83,East,79,0.0,7.0,82,0.00,,,0.00,VWS V14.01,2013-07-20 00:50:00,
2013-07-19 20:55:00,80.6,74.6,29.84,ENE,59,3.0,4.0,82,0.00,,,0.00,VWS V14.01,2013-07-20 00:55:00,
2013-07-19 21:00:00,80.5,74.8,29.83,ENE,70,2.0,4.0,83,0.00,,,0.00,VWS V14.01,2013-07-20 01:00:00,
2013-07-19 21:05:00,80.5,74.5,29.84,ENE,71,1.0,4.0,82,0.00,,CLR,0.00,VWS V14.01,2013-07-20 01:05:00,
2013-07-19 21:10:00,80.3,74.6,29.84,East,85,1.0,5.0,83,0.00,,CLR,0.00,VWS V14.01,2013-07-20 01:10:00,
2013-07-19 21:15:00,80.3,75.0,29.85,ENE,59,3.0,3.0,84,0.00,,CLR,0.00,VWS V14.01,2013-07-20 01:15:00,
2013-07-19 21:20:00,80.1,74.4,29.85,ENE,62,1.0,2.0,83,0.00,,CLR,0.00,VWS V14.01,2013-07-20 01:20:00,
2013-07-19 21:25:00,80.1,74.8,29.86,South,181,3.0,4.0,84,0.00,,CLR,0.00,VWS V14.01,2013-07-20 01:25:00,
2013-07-19 21:30:00,79.9,74.6,29.86,South,181,1.0,4.0,84,0.00,,CLR,0.00,VWS V14.01,2013-07-20 01:30:00,
2013-07-19 21:35:00,79.7,74.8,29.86,West,259,3.0,4.0,85,0.00,,CLR,0.00,VWS V14.01,2013-07-20 01:35:00,
2013-07-19 21:40:00,79.7,74.8,29.86,SSW,207,5.0,5.0,85,0.00,,CLR,0.00,VWS V14.01,2013-07-20 01:40:00,
2013-07-19 21:45:00,79.7,74.4,29.85,SW,229,0.0,7.0,84,0.00,,CLR,0.00,VWS V14.01,2013-07-20 01:45:00,
2013-07-19 21:50:00,79.7,74.8,29.85,SSW,206,2.0,3.0,85,0.00,,CLR,0.00,VWS V14.01,2013-07-20 01:50:00,
2013-07-19 21:55:00,79.7,74.8,29.86,South,191,2.0,5.0,85,0.00,,CLR,0.00,VWS V14.01,2013-07-20 01:55:00,
2013-07-19 22:00:00,79.7,74.8,29.85,WSW,238,1.0,2.0,85,0.00,,CLR,0.00,VWS V14.01,2013-07-20 02:00:00,
2013-07-19 22:05:00,79.5,74.6,29.86,South,174,2.0,4.0,85,0.00,,CLR,0.00,VWS V14.01,2013-07-20 02:05:00,
2013-07-19 22:10:00,79.5,74.6,29.85,SSW,206,2.0,4.0,85,0.00,,CLR,0.00,VWS V14.01,2013-07-20 02:10:00,
2013-07-19 22:15:00,79.4,74.5,29.85,SSW,201,1.0,4.0,85,0.00,,CLR,0.00,VWS V14.01,2013-07-20 02:15:00,
2013-07-19 22:20:00,79.4,74.8,29.84,SSW,201,1.0,4.0,86,0.00,,CLR,0.00,VWS V14.01,2013-07-20 02:20:00,
2013-07-19 22:25:00,79.2,74.6,29.84,South,191,3.0,6.0,86,0.00,,CLR,0.00,VWS V14.01,2013-07-20 02:25:00,
2013-07-19 22:30:00,79.2,74.6,29.84,SW,221,3.0,6.0,86,0.00,,CLR,0.00,VWS V14.01,2013-07-20 02:30:00,
2013-07-19 22:35:00,79.2,74.6,29.84,South,184,2.0,5.0,86,0.00,,CLR,0.00,VWS V14.01,2013-07-20 02:35:00,
2013-07-19 22:40:00,79.2,74.9,29.85,SSW,194,1.0,3.0,87,0.00,,CLR,0.00,VWS V14.01,2013-07-20 02:40:00,
2013-07-19 22:45:00,78.9,74.8,29.84,SSW,210,2.0,5.0,87,0.00,,CLR,0.00,VWS V14.01,2013-07-20 02:45:00,
2013-07-19 22:50:00,78.9,74.8,29.84,South,190,3.0,4.0,87,0.00,,CLR,0.00,VWS V14.01,2013-07-20 02:50:00,
2013-07-19 22:55:00,78.9,74.8,29.84,South,184,0.0,3.0,87,0.00,,CLR,0.00,VWS V14.01,2013-07-20 02:55:00,
2013-07-19 23:00:00,79.2,74.9,29.84,SW,233,0.0,3.0,87,0.00,,CLR,0.00,VWS V14.01,2013-07-20 03:00:00,
2013-07-19 23:05:00,79.2,74.9,29.84,West,277,3.0,3.0,87,0.00,,CLR,0.00,VWS V14.01,2013-07-20 03:05:00,
2013-07-19 23:10:00,79.2,74.9,29.84,South,184,3.0,4.0,87,0.00,,CLR,0.00,VWS V14.01,2013-07-20 03:10:00,
2013-07-19 23:15:00,79.2,75.1,29.83,SW,214,1.0,6.0,87,0.00,,CLR,0.00,VWS V14.01,2013-07-20 03:15:00,
2013-07-19 23:20:00,78.9,74.8,29.83,SSW,213,2.0,4.0,87,0.00,,CLR,0.00,VWS V14.01,2013-07-20 03:20:00,
2013-07-19 23:25:00,78.9,75.1,29.83,SSW,213,3.0,3.0,88,0.00,,CLR,0.00,VWS V14.01,2013-07-20 03:25:00,
2013-07-19 23:30:00,78.7,74.9,29.83,SSW,211,1.0,2.0,88,0.00,,CLR,0.00,VWS V14.01,2013-07-20 03:30:00,
2013-07-19 23:35:00,78.8,75.0,29.83,SW,228,2.0,2.0,88,0.00,,CLR,0.00,VWS V14.01,2013-07-20 03:35:00,
2013-07-19 23:40:00,78.6,74.8,29.82,South,190,0.0,4.0,88,0.00,,CLR,0.00,VWS V14.01,2013-07-20 03:40:00,
2013-07-19 23:45:00,78.5,75.0,29.82,South,173,1.0,5.0,89,0.00,,CLR,0.00,VWS V14.01,2013-07-20 03:45:00,
2013-07-19 23:50:00,78.6,75.1,29.82,SSW,197,2.0,4.0,89,0.00,,CLR,0.00,VWS V14.01,2013-07-20 03:50:00,
2013-07-19 23:55:00,78.6,75.1,29.82,SSW,202,3.0,3.0,89,0.00,,CLR,0.00,VWS V14.01,2013-07-20 03:55:00,